Regional Weather Roundup
Issued by NWS Nashville, TN

Home | Current Version | Previous Version | Text Only | Print | Product List | Glossary On
Versions: 1 2 3 4 5 6 7 8 9 10 11 12 13 14 15 16 17 18 19 20 21 22 23 24 25 26 27
000
ASUS44 KOHX 221010
RWROHX
MIDDLE TENNESSEE HOURLY WEATHER ROUNDUP
NATIONAL WEATHER SERVICE NASHVILLE TN
400 AM CST SUN JAN 22 2017

NOTE: "FAIR" INDICATES FEW OR NO CLOUDS BELOW 12,000 FEET WITH
NO SIGNIFICANT WEATHER AND/OR OBSTRUCTIONS TO VISIBILITY.

* THESE REPORTS ARE NOT UNDER NWS QUALITY CONTROL AND MAY NOT
  REPORT WEATHER SUCH AS PRECIPITATION AND FOG.


TNZ005>011-023>034-057-059-062>066-078-080-221100
...NORTHERN MIDDLE TENNESSEE...

CITY           SKY/WX    TMP DP  RH WIND       PRES   REMARKS
CLARKSVILLE    CLOUDY    52  48  86 E7        29.47F
CROSSVILLE     CLOUDY    53  50  89 SE7       29.55F
GALLATIN       MOCLDY    54  50  87 CALM      29.53S
DICKSON        CLOUDY    52  50  93 VRB3      29.47F
LEBANON        CLOUDY    53  49  86 E5        29.48F
NASHVILLE      CLOUDY    53  49  86 NE3       29.49F
PORTLAND       PTCLDY    54  50  87 CALM      29.49F
SMYRNA         CLOUDY    52  50  93 CALM      29.50F
SPRINGFIELD    CLEAR     54  50  87 CALM      29.48F
WEST NASHVILLE MOCLDY    52  50  93 NE3       29.48F
$$
TNZ056-058-060-061-075>077-079-093>097-221100
...SOUTHERN MIDDLE TENNESSEE...

CITY           SKY/WX    TMP DP  RH WIND       PRES   REMARKS
COLUMBIA       CLOUDY   N/A N/A N/A VRB5      29.46F
MCMINNVILLE    CLOUDY    57  55  94 CALM      29.48F
SHELBYVILLE    CLOUDY    57  55  94 S8        29.50S
TULLAHOMA      MOCLDY    55  54  94 SE3       29.50S
WINCHESTER     MOCLDY    55  55 100 NW7       29.47F
$$


...KEY TO REMARKS...
VSB - VISIBILITY IN MILES
WCI - WIND CHILL INDEX
HX  - HEAT INDEX





USA.gov is the U.S. government's official web portal to all federal, state and local government web resources and services.